Regional Weather Roundup
Issued by NWS Sioux Falls, SD

Home | Current Version | Previous Version | Text Only | Print | Product List | Glossary On
Versions: 1 2 3 4 5 6 7 8 9 10 11 12 13 14 15 16 17 18 19 20 21 22 23 24 25 26 27 28 29 30 31 32 33 34 35 36 37 38 39 40 41 42 43 44 45 46 47 48 49 50
000
ASUS43 KFSD 210802
RWRFSD

WEATHER ROUNDUP FOR SE SOUTH DAKOTA/SW MINNESOTA/NW IOWA
NATIONAL WEATHER SERVICE SIOUX FALLS SD
300 AM CDT SAT APR 21 2018

NOTE: "FAIR" INDICATES FEW OR NO CLOUDS BELOW 12,000 FEET WITH NO
SIGNIFICANT WEATHER AND OR OBSTRUCTIONS TO VISIBILITY.


SDZ038>040-050-052>070-210900-
SOUTHEAST SOUTH DAKOTA

CITY           SKY/WX    TMP DP  RH WIND       PRES   REMARKS
BROOKINGS      CLOUDY    37  33  85 SW5       30.37R
CHAMBERLAIN    DRIZZLE   42  42 100 S6        30.32R
HURON          CLOUDY    40  36  86 SE7       30.35R
MADISON        CLOUDY    37  37 100 S7        30.37S
MITCHELL       CLOUDY    38  36  92 E6        30.35S
SIOUX FALLS    CLOUDY    39  32  76 E7        30.37S
WINNER         CLOUDY    40  35  83 SE8       30.30S
YANKTON        CLOUDY    40  36  86 NE7       30.34F
$$

MNZ071-072-080-081-089-090-097-098-210900-
SOUTHWEST MINNESOTA

CITY           SKY/WX    TMP DP  RH WIND       PRES   REMARKS
FAIRMONT       CLOUDY    37  28  70 CALM      30.40S
JACKSON        CLOUDY    36  28  75 SE5       30.39S
LUVERNE        CLOUDY    36  32  87 CALM      30.39R
MARSHALL       CLOUDY    35  31  85 S3        30.39S
MONTEVIDEO     CLOUDY    34  30  86 CALM      30.39S
PIPESTONE      DRIZZLE  N/A N/A N/A SE8       30.37R
REDWOOD FALLS  CLOUDY    34  29  82 S5        30.39S WCI  30
TRACY          CLOUDY    39  30  70 S6        30.38R
WINDOM         CLOUDY    37  19  48 CALM      30.39R
WORTHINGTON    MIX PCPN  36  29  75 S8        30.40R
$$

IAZ001>003-012>014-020>022-031-032-NEZ013-014-SDZ071-210900-
NORTHWEST IOWA

CITY           SKY/WX    TMP DP  RH WIND       PRES   REMARKS
CHEROKEE       CLOUDY    38  31  76 E3        30.37F
DENISON        CLOUDY    45  37  76 E7        30.38R
ESTHERVILLE    CLOUDY    33  30  88 SW6       30.40R WCI  28
LE MARS        CLOUDY    43  30  61 E14       30.35F
ORANGE CITY    CLOUDY    39  36  87 E5        30.36F
SHELDON        CLOUDY    37  34  87 E10       30.35F
SIOUX CITY     CLOUDY    43  32  65 E3        30.37R
SPENCER        CLOUDY    38  29  70 CALM      30.39S
STORM LAKE     CLOUDY    36  32  87 E5        30.36S
$$

ABBREVIATIONS USED IN REMARKS
   TC - TEMPERATURE IN CELSIUS
  WCI - WIND CHILL INDEX
   HX - HEAT INDEX
  VSB - VISIBILITY





USA.gov is the U.S. government's official web portal to all federal, state and local government web resources and services.